EW7605 Weather Reports


Display with metric or nautical units.
time (UTC)temp
F
wind
direction
speed
MPH
gust
MPH
rain 1hr
in
rain 24hr
in
rain mn
in
humidity
%
barometer
mb
20260507074606 48 75 0.0 0.0 0.00 0.50 0.13 1 1005.0
20260507073133 49 75 0.0 0.0 0.00 0.50 0.13 1 1005.1
20260507071551 49 75 0.0 0.0 0.00 0.50 0.13 1 1004.9
20260507070047 49 75 0.0 0.0 0.00 0.50 0.13 1 1004.7
20260507064557 49 75 0.0 0.0 0.00 0.50 0.13 1 1004.4
20260507063046 49 75 0.0 1.0 0.00 0.50 0.13 1 1004.4
20260507061538 50 78 0.0 2.0 0.01 0.50 0.13 1 1004.1
20260507060029 50 79 0.0 2.0 0.01 0.50 0.13 1 1004.2
20260507054525 51 78 0.0 1.0 0.02 0.50 0.13 1 1004.2
20260507053024 51 207 0.0 3.0 0.05 0.50 0.13 1 1004.1
20260507051516 52 110 0.0 2.0 0.09 0.49 0.12 1 1004.1
20260507050011 52 44 0.0 2.0 0.12 0.49 0.12 1 1003.9
20260507044509 52 290 0.0 3.0 0.12 0.48 0.11 1 1004.0
20260507043003 53 71 2.0 8.0 0.09 0.45 0.08 1 1003.9
20260507041608 53 21 0.0 3.0 0.05 0.40 0.03 1 1004.2
20260507040105 53 66 0.0 1.0 0.02 0.37 0.00 1 1003.5
20260507034608 53 66 1.0 5.0 0.01 0.36 0.36 1 1003.4
20260507033102 53 249 0.0 3.0 0.01 0.36 0.36 1 1002.9
20260507031541 53 242 2.0 6.0 0.00 0.35 0.35 1 1003.0
20260507030038 52 231 1.0 8.0 0.00 0.35 0.35 1 1002.8
20260507024533 52 211 2.0 7.0 0.00 0.35 0.35 1 1003.2
20260507023029 52 309 3.0 9.0 0.01 0.35 0.35 1 1003.3
20260507021525 52 261 4.0 10.0 0.02 0.35 0.35 1 1003.4
20260507020021 52 223 2.0 10.0 0.03 0.35 0.35 1 1003.6
20260507014520 52 198 6.0 11.0 0.04 0.35 0.35 1 1003.8
20260507013014 52 294 4.0 9.0 0.03 0.34 0.34 1 1003.9
20260507011508 52 294 4.0 11.0 0.02 0.33 0.33 1 1004.0
20260507010012 52 209 5.0 10.0 0.01 0.32 0.32 1 1004.1
20260507004559 52 282 4.0 14.0 0.00 0.31 0.31 1 1004.2
20260507003057 53 214 5.0 15.0 0.00 0.31 0.31 1 1004.2
20260507001608 53 229 7.0 14.0 0.00 0.31 0.31 1 1004.3
20260507000046 53 301 6.0 13.0 0.00 0.31 0.31 1 1004.2
20260506234552 53 225 5.0 12.0 0.00 0.31 0.31 1 1004.2
20260506233038 53 258 5.0 16.0 0.00 0.31 0.31 1 1004.5
20260506231536 53 235 4.0 14.0 0.01 0.31 0.31 1 1004.4
20260506230028 54 296 6.0 16.0 0.02 0.31 0.31 1 1004.5
20260506224528 54 215 8.0 22.0 0.02 0.31 0.31 1 1004.6
20260506223021 54 205 7.0 14.0 0.02 0.31 0.31 1 1004.8
20260506221514 54 228 6.0 11.0 0.03 0.30 0.30 1 1004.9
20260506220027 54 217 5.0 12.0 0.06 0.28 0.28 1 1005.0
20260506214506 54 178 5.0 11.0 0.08 0.28 0.28 1 1004.9
20260506213002 54 194 6.0 11.0 0.09 0.28 0.28 1 1005.1
20260506211559 54 192 6.0 11.0 0.08 0.27 0.27 1 1005.2
20260506210055 54 239 3.0 11.0 0.06 0.23 0.23 1 1005.4
20260506204553 54 264 6.0 11.0 0.08 0.21 0.21 1 1005.4
20260506203057 54 217 4.0 10.0 0.09 0.20 0.20 1 1005.2
20260506201544 55 204 3.0 9.0 0.11 0.19 0.19 1 1005.5
20260506200039 54 192 4.0 8.0 0.13 0.17 0.17 1 1005.6
20260506194538 54 202 6.0 10.0 0.12 0.13 0.13 1 1006.0
20260506193030 54 196 5.0 10.0 0.11 0.11 0.11 1 1005.8
20260506191527 54 219 4.0 7.0 0.08 0.08 0.08 2 1006.1
20260506190022 54 335 2.0 9.0 0.04 0.04 0.04 18 1005.9
20260506184521 54 271 3.0 13.0 0.01 0.01 0.01 35 1005.9
20260506183019 55 292 7.0 12.0 0.00 0.00 0.00 45 1006.0
20260506181519 55 267 7.0 15.0 0.00 0.00 0.00 51 1006.0
20260506180016 55 244 7.0 15.0 0.00 0.00 0.00 51 1005.9
20260506174514 55 227 7.0 14.0 0.00 0.00 0.00 49 1006.1
20260506173012 55 215 6.0 13.0 0.00 0.00 0.00 52 1006.3
20260506171508 56 205 6.0 12.0 0.00 0.00 0.00 57 1006.6
20260506170007 57 257 6.0 13.0 0.00 0.00 0.00 60 1006.8
20260506164512 58 208 6.0 13.0 0.00 0.00 0.00 60 1007.2
20260506163005 58 235 7.0 12.0 0.00 0.00 0.00 56 1007.3
20260506161502 58 250 6.0 12.0 0.00 0.00 0.00 56 1007.7
20260506160002 58 285 6.0 11.0 0.00 0.00 0.00 55 1007.9
20260506154507 58 217 8.0 13.0 0.00 0.00 0.00 54 1008.0
20260506153001 58 275 6.0 10.0 0.00 0.00 0.00 54 1008.2
20260506151600 58 200 7.0 12.0 0.00 0.00 0.00 53 1007.9
20260506150105 58 183 4.0 9.0 0.00 0.00 0.00 49 1007.9
20260506144602 57 250 7.0 11.0 0.00 0.00 0.00 53 1007.8
20260506143059 57 198 9.0 14.0 0.00 0.00 0.00 53 1007.6
20260506141557 57 266 6.0 13.0 0.00 0.00 0.00 52 1008.0
20260506140057 57 209 5.0 10.0 0.00 0.00 0.00 51 1008.3
20260506134556 57 196 4.0 7.0 0.00 0.00 0.00 49 1008.3
20260506133106 57 213 5.0 9.0 0.00 0.00 0.00 54 1008.1
20260506131602 58 228 6.0 10.0 0.00 0.00 0.00 59 1008.1
20260506130056 58 300 3.0 9.0 0.00 0.00 0.00 56 1008.0
20260506124555 58 261 3.0 9.0 0.00 0.00 0.00 54 1008.1
20260506123048 57 246 4.0 8.0 0.00 0.00 0.00 49 1008.2
20260506121544 56 248 3.0 7.0 0.00 0.00 0.00 44 1008.3
20260506120042 55 225 2.0 5.0 0.00 0.00 0.00 33 1008.4
20260506114537 54 184 0.0 4.0 0.00 0.00 0.00 32 1008.5
20260506113036 53 189 2.0 5.0 0.00 0.00 0.00 30 1008.8
20260506111534 53 266 1.0 4.0 0.00 0.00 0.00 28 1009.1
20260506110033 52 181 1.0 4.0 0.00 0.00 0.00 29 1008.8
20260506104531 52 163 0.0 3.0 0.00 0.00 0.00 31 1008.8
20260506103037 52 163 1.0 3.0 0.00 0.00 0.00 34 1008.6
20260506101529 52 136 1.0 3.0 0.00 0.00 0.00 35 1008.5
20260506100034 52 97 0.0 0.0 0.00 0.00 0.00 40 1008.5
20260506094531 52 97 0.0 2.0 0.00 0.00 0.00 44 1008.5
20260506093023 52 96 1.0 5.0 0.00 0.00 0.00 45 1008.5
20260506091519 53 189 1.0 3.0 0.00 0.00 0.00 49 1008.3
20260506090017 53 178 3.0 8.0 0.00 0.00 0.00 51 1008.1
20260506084515 53 213 3.0 6.0 0.00 0.00 0.00 52 1008.1
20260506083014 53 244 3.0 6.0 0.00 0.00 0.00 52 1007.8
20260506081511 53 257 2.0 7.0 0.00 0.00 0.00 54 1007.9